When you browse on this site, cookies collect data to enhance your experience and personalize the content and advertising you see.
Visit our Privacy Policy to learn more. By continuing to use the site, you agree to this use of cookies and data.
  • In Hungary
  • List of Countries
  • For 7 days
  • Water Temperature
  • Satellite Maps
  • Weather Map
  • News
  • Weather Widgets
  • user-avatar
    Login

    Hourly Weather Huaqiuba

    Today, 13 December, Thursday

    Time Temperature Precipitation Wind Pressure Humidity
    00:00 +2°C° 0 mm 1 mps 670 mmHg 52%
    01:00 +1°C° 0 mm 0 mps 670 mmHg 53%
    02:00 +1°C° 0 mm 0 mps 670 mmHg 54%
    03:00 0°C° 0 mm 0 mps 669 mmHg 56%
    04:00 0°C° 0 mm 0 mps 669 mmHg 57%
    05:00 0°C° 0 mm 0 mps 669 mmHg 58%
    06:00 0°C° 0 mm 0 mps 669 mmHg 58%
    07:00 0°C° 0 mm 0 mps 671 mmHg 57%
    08:00 +3°C° 0 mm 1 mps 671 mmHg 53%
    09:00 +4°C° 0 mm 1 mps 671 mmHg 48%
    10:00 +6°C° 0 mm 1 mps 671 mmHg 43%
    11:00 +7°C° 0 mm 1 mps 670 mmHg 42%
    12:00 +8°C° 0 mm 1 mps 670 mmHg 41%
    13:00 +9°C° 0 mm 1 mps 669 mmHg 41%
    14:00 +9°C° 0 mm 1 mps 669 mmHg 43%
    15:00 +8°C° 0 mm 2 mps 668 mmHg 45%
    16:00 +8°C° 0 mm 2 mps 668 mmHg 47%
    17:00 +8°C° 0 mm 1 mps 668 mmHg 52%
    18:00 +7°C° 0 mm 1 mps 668 mmHg 57%
    19:00 +5°C° 0 mm 1 mps 668 mmHg 63%
    20:00 +5°C° 0 mm 1 mps 668 mmHg 64%
    21:00 +5°C° 0 mm 1 mps 668 mmHg 66%
    22:00 +4°C° 0 mm 1 mps 669 mmHg 68%
    23:00 +5°C° 0 mm 1 mps 669 mmHg 67%

    Tomorrow, 14 December, Friday

    Time Temperature Precipitation Wind Pressure Humidity
    00:00 +5°C° 0 mm 1 mps 669 mmHg 67%
    01:00 +5°C° 0 mm 1 mps 669 mmHg 67%
    02:00 +5°C° 0 mm 1 mps 669 mmHg 68%
    03:00 +5°C° 0 mm 1 mps 669 mmHg 68%
    04:00 +5°C° 0 mm 1 mps 668 mmHg 69%
    05:00 +5°C° 0 mm 1 mps 668 mmHg 70%
    06:00 +5°C° 0 mm 1 mps 669 mmHg 70%
    07:00 +5°C° 0 mm 1 mps 669 mmHg 71%
    08:00 +5°C° 0 mm 1 mps 669 mmHg 67%
    09:00 +5°C° 0 mm 2 mps 669 mmHg 63%
    10:00 +6°C° 0 mm 2 mps 669 mmHg 59%
    11:00 +6°C° 0 mm 2 mps 669 mmHg 58%
    12:00 +7°C° 0 mm 2 mps 668 mmHg 57%
    13:00 +7°C° 0 mm 2 mps 667 mmHg 56%
    14:00 +7°C° 0 mm 2 mps 667 mmHg 57%
    15:00 +7°C° 0 mm 2 mps 666 mmHg 58%
    16:00 +7°C° 0 mm 2 mps 666 mmHg 59%
    17:00 +6°C° 0 mm 2 mps 666 mmHg 61%
    18:00 +6°C° 0 mm 2 mps 666 mmHg 62%
    19:00 +5°C° 0 mm 2 mps 666 mmHg 63%
    20:00 +5°C° 0 mm 2 mps 667 mmHg 63%
    21:00 +6°C° 0 mm 1 mps 667 mmHg 63%
    22:00 +6°C° 0 mm 1 mps 667 mmHg 64%
    23:00 +6°C° 0 mm 1 mps 667 mmHg 65%

    Day after tomorrow, 15 December, Saturday

    Time Temperature Precipitation Wind Pressure Humidity
    00:00 +6°C° 0 mm 1 mps 667 mmHg 66%
    01:00 +6°C° 0 mm 1 mps 667 mmHg 68%
    02:00 +6°C° 0.1 mm 1 mps 667 mmHg 70%
    03:00 +5°C° 0.1 mm 1 mps 667 mmHg 72%
    04:00 +5°C° 0.1 mm 1 mps 666 mmHg 75%
    05:00 +5°C° 0.1 mm 1 mps 667 mmHg 77%
    06:00 +5°C° 0.1 mm 1 mps 667 mmHg 78%
    07:00 +5°C° 0.1 mm 1 mps 668 mmHg 80%
    08:00 +5°C° 0.1 mm 1 mps 668 mmHg 79%
    09:00 +6°C° 0.1 mm 1 mps 669 mmHg 79%
    10:00 +6°C° 0.1 mm 1 mps 669 mmHg 78%
    11:00 +6°C° 0 mm 1 mps 669 mmHg 78%
    12:00 +7°C° 0 mm 1 mps 668 mmHg 77%
    13:00 +7°C° 0 mm 1 mps 668 mmHg 77%
    14:00 +7°C° 0 mm 1 mps 668 mmHg 78%
    15:00 +7°C° 0 mm 1 mps 668 mmHg 78%
    16:00 +7°C° 0 mm 1 mps 668 mmHg 79%
    17:00 +7°C° 0 mm 1 mps 669 mmHg 81%
    18:00 +6°C° 0 mm 1 mps 669 mmHg 83%
    19:00 +6°C° 0 mm 1 mps 670 mmHg 85%
    20:00 +6°C° 0.1 mm 1 mps 670 mmHg 86%
    21:00 +6°C° 0.1 mm 1 mps 671 mmHg 87%
    22:00 +6°C° 0.1 mm 1 mps 671 mmHg 88%
    23:00 +6°C° 0.2 mm 1 mps 671 mmHg 89%

    16 December, Sunday

    Time Temperature Precipitation Wind Pressure Humidity
    00:00 +6°C° 0.2 mm 1 mps 671 mmHg 89%
    01:00 +6°C° 0.2 mm 1 mps 671 mmHg 90%
    02:00 +5°C° 0.2 mm 1 mps 671 mmHg 90%
    03:00 +5°C° 0.2 mm 1 mps 671 mmHg 90%
    04:00 +5°C° 0.2 mm 1 mps 671 mmHg 90%
    05:00 +5°C° 0 mm 1 mps 671 mmHg 90%
    06:00 +5°C° 0 mm 1 mps 671 mmHg 90%
    07:00 +5°C° 0 mm 1 mps 671 mmHg 90%
    08:00 +6°C° 0 mm 1 mps 672 mmHg 84%
    09:00 +7°C° 0 mm 1 mps 672 mmHg 78%
    10:00 +9°C° 0 mm 1 mps 672 mmHg 73%
    11:00 +10°C° 0 mm 1 mps 672 mmHg 69%
    12:00 +10°C° 0 mm 0 mps 671 mmHg 66%
    13:00 +11°C° 0 mm 0 mps 670 mmHg 62%
    14:00 +10°C° 0 mm 0 mps 670 mmHg 63%
    15:00 +11°C° 0 mm 1 mps 669 mmHg 64%
    16:00 +11°C° 0 mm 1 mps 668 mmHg 64%
    17:00 +10°C° 0 mm 1 mps 669 mmHg 69%
    18:00 +9°C° 0 mm 1 mps 669 mmHg 75%
    19:00 +8°C° 0 mm 1 mps 669 mmHg 80%
    20:00 +8°C° 0 mm 1 mps 669 mmHg 82%
    21:00 +7°C° 0 mm 1 mps 669 mmHg 84%
    22:00 +6°C° 0 mm 0 mps 669 mmHg 86%
    23:00 +6°C° 0 mm 0 mps 669 mmHg 87%

    17 December, Monday

    Time Temperature Precipitation Wind Pressure Humidity
    00:00 +5°C° 0 mm 0 mps 669 mmHg 88%
    01:00 +5°C° 0 mm 0 mps 669 mmHg 89%
    02:00 +5°C° 0 mm 0 mps 668 mmHg 89%
    03:00 +5°C° 0 mm 0 mps 668 mmHg 90%
    04:00 +5°C° 0 mm 0 mps 668 mmHg 90%
    05:00 +5°C° 0 mm 0 mps 668 mmHg 90%
    06:00 +4°C° 0 mm 0 mps 669 mmHg 90%
    07:00 +4°C° 0 mm 0 mps 669 mmHg 90%
    08:00 +6°C° 0 mm 0 mps 670 mmHg 83%
    09:00 +8°C° 0 mm 0 mps 670 mmHg 75%
    10:00 +10°C° 0 mm 0 mps 671 mmHg 67%
    11:00 +11°C° 0 mm 0 mps 670 mmHg 64%
    12:00 +14°C° 0 mm 1 mps 669 mmHg 60%
    13:00 +15°C° 0 mm 1 mps 668 mmHg 57%
    14:00 +14°C° 0 mm 1 mps 668 mmHg 58%
    15:00 +14°C° 0 mm 1 mps 667 mmHg 59%
    16:00 +14°C° 0 mm 1 mps 667 mmHg 60%
    17:00 +13°C° 0 mm 1 mps 667 mmHg 65%
    18:00 +12°C° 0 mm 1 mps 666 mmHg 70%
    19:00 +10°C° 0 mm 1 mps 666 mmHg 76%
    20:00 +10°C° 0 mm 1 mps 666 mmHg 77%
    21:00 +10°C° 0 mm 1 mps 666 mmHg 79%
    22:00 +9°C° 0 mm 1 mps 666 mmHg 81%
    23:00 +9°C° 0 mm 1 mps 665 mmHg 81%

    18 December, Tuesday

    Time Temperature Precipitation Wind Pressure Humidity
    00:00 +9°C° 0 mm 1 mps 665 mmHg 82%
    01:00 +9°C° 0 mm 1 mps 664 mmHg 82%
    02:00 +9°C° 0 mm 1 mps 664 mmHg 81%
    03:00 +9°C° 0 mm 1 mps 663 mmHg 80%
    04:00 +9°C° 0 mm 1 mps 663 mmHg 79%
    05:00 +9°C° 0 mm 1 mps 663 mmHg 79%
    06:00 +9°C° 0 mm 1 mps 663 mmHg 79%
    07:00 +9°C° 0 mm 1 mps 663 mmHg 79%
    08:00 +10°C° 0 mm 1 mps 663 mmHg 77%
    09:00 +9°C° 0 mm 2 mps 663 mmHg 74%
    10:00 +10°C° 0 mm 2 mps 663 mmHg 71%
    11:00 +10°C° 0 mm 2 mps 662 mmHg 72%
    12:00 +10°C° 0 mm 2 mps 661 mmHg 73%
    13:00 +11°C° 0 mm 1 mps 660 mmHg 74%
    14:00 +10°C° 0 mm 2 mps 659 mmHg 76%
    15:00 +10°C° 0 mm 2 mps 659 mmHg 77%
    16:00 +10°C° 0 mm 2 mps 658 mmHg 79%
    17:00 +10°C° 0.1 mm 2 mps 658 mmHg 81%
    18:00 +9°C° 0.1 mm 2 mps 659 mmHg 83%
    19:00 +9°C° 0.1 mm 2 mps 659 mmHg 85%
    20:00 +9°C° 0.1 mm 2 mps 659 mmHg 86%
    21:00 +10°C° 0.1 mm 1 mps 659 mmHg 88%
    22:00 +10°C° 0.1 mm 1 mps 659 mmHg 89%
    23:00 +10°C° 0.1 mm 1 mps 659 mmHg 90%
    Show more